[[{"header":{"parameterUnit":"m.s-1","parameterCategory":1,"la1":30.2991,"la2":30.254,"lo1":-89.0895,"lo2":-89.0444,"dy":0.0017,"dx":0.0017,"nx":28,"ny":28,"refTime":"2025-09-16T09:00:00:Z","depth":0,"parameterNumber":2,"parameterNumberName":"U-component_of_WINDS"},"data":[0,0,0,0,0,0,0,0,0,0,0,0,0,0,0,0,0,0,0,0,0,0,0,0,0,0,0,0,0,0,0,0,0,0,0,0,0,0,0,0,0,0,0,0,0,0,0,0,0,0,0,0,0,0,0,0,0,0,1.6998,1.6998,0,1.6987,1.6987,1.6987,1.694,1.6939,1.6937,1.6936,1.6924,1.6925,1.6926,0,0,0,0,0,0,0,0,0,0,0,0,0,1.6976,1.6976,1.6998,1.6998,1.6998,1.6987,1.6987,1.6987,1.694,1.6938,1.6937,1.6936,1.6924,1.6925,1.6926,0,0,0,0,0,0,0,0,0,0,0,0,0,1.6977,1.6977,1.6998,1.6973,1.6971,1.6987,1.6987,1.6987,1.694,1.6938,1.6937,1.6935,1.6924,1.6925,1.6926,1.6966,0,0,1.6929,1.693,0,0,0,0,0,0,0,0,1.6977,1.6978,1.6977,1.6975,1.6972,1.6963,1.6975,1.698,1.6941,1.6952,1.6936,1.6934,1.6939,1.6938,1.694,1.6965,1.6965,1.6929,1.693,1.693,1.6931,0,0,0,0,0,0,0,1.6977,1.6978,1.6994,1.6977,1.6974,1.6962,1.696,1.6976,1.6955,1.6951,1.6947,1.6947,1.6937,1.6939,1.6939,1.6964,1.6929,1.693,1.6931,1.6931,1.7018,1.702,0,0,0,0,0,0,1.6981,1.6979,1.6994,1.6993,1.6971,1.6963,1.6962,1.6968,1.6954,1.6951,1.6948,1.6944,1.6938,1.6938,1.6939,1.6981,1.693,1.6931,1.6932,1.7017,1.7019,1.702,0,0,0,0,0,0,1.6981,1.6983,1.6994,1.6985,1.6986,1.6966,1.6973,1.6968,1.697,1.6952,1.6948,1.6954,1.6937,1.6937,1.6959,1.698,1.6932,1.6933,1.7015,1.7017,1.7019,1.7069,0,0,0,0,0,0,1.698,1.6983,1.6998,1.6986,1.6986,1.7015,1.6974,1.6969,1.6972,1.6968,1.6957,1.6953,1.6935,1.6957,1.696,1.6981,1.6934,1.7012,1.7016,1.7019,1.7065,1.7073,1.7079,0,0,0,0,0,1.6979,1.7013,1.6999,1.7001,1.7005,1.7017,1.7017,1.6996,1.6974,1.6989,1.6977,1.6954,1.6978,1.696,1.6962,1.6984,1.7011,1.7015,1.7018,1.7062,1.7071,1.7079,0,0,0,0,0,0,1.7029,1.7011,1.6996,1.7026,1.7023,1.7009,1.7027,1.7007,1.701,1.7005,1.6979,1.6977,1.7001,1.6995,1.6975,1.702,1.699,1.6995,1.7023,1.7032,1.7039,1.7038,1.6935,0,0,0,0,0,1.7044,1.7055,1.7039,1.7067,1.7067,1.7047,1.7051,1.7035,1.7031,1.7029,1.7019,1.7016,1.7022,1.7027,1.7032,1.7065,1.706,1.7081,1.7088,1.7094,1.7097,1.7111,1.7119,1.7033,1.7033,1.7033,0,0,1.7074,1.7065,1.7074,1.7077,1.7073,1.7084,1.7046,1.7061,1.7068,1.7032,1.705,1.7043,1.7037,1.7063,1.7074,1.7059,1.7121,1.7099,1.7104,1.7104,1.7116,1.7124,1.7131,1.7035,1.7035,1.7034,0,0,1.7133,1.713,1.7151,1.7148,1.7142,1.7128,1.7134,1.7122,1.7115,1.7134,1.7106,1.7114,1.7127,1.7123,1.7123,1.7179,1.7157,1.7182,1.7218,1.7232,1.7239,1.7244,1.7262,1.7269,1.7186,1.7186,1.7186,0,1.7171,1.7187,1.7165,1.718,1.7181,1.7149,1.717,1.7167,1.7164,1.7164,1.7148,1.7161,1.7155,1.7178,1.7192,1.7194,1.7198,1.7182,1.724,1.7245,1.725,1.7266,1.7273,1.7189,1.7189,1.7188,1.7188,0,1.7232,1.7244,1.7263,1.7259,1.7262,1.728,1.726,1.7266,1.7249,1.7237,1.7255,1.7247,1.7249,1.7254,1.7238,1.7274,1.7265,1.7244,1.7213,1.7262,1.7276,1.7283,1.7193,1.7192,1.7191,1.719,0,0,1.7322,1.7305,1.7312,1.7309,1.7299,1.7307,1.7323,1.7325,1.7329,1.7328,1.7339,1.735,1.733,1.733,1.7313,1.7326,1.7368,1.7303,1.7303,1.7313,1.7404,1.7417,1.7425,1.7354,1.7355,1.7356,1.7403,0,1.7377,1.7403,1.7383,1.7412,1.7421,1.739,1.7403,1.7398,1.7388,1.7393,1.7381,1.7388,1.7363,1.7362,1.7373,1.736,1.7385,1.7357,1.7362,1.7362,1.7361,1.7433,1.7448,1.7492,1.7409,1.741,1.7411,0,1.7444,1.7444,1.7474,1.746,1.7463,1.7475,1.7474,1.748,1.7473,1.7464,1.7463,1.7443,1.7456,1.7428,1.7445,1.7426,1.7427,1.7421,1.7422,1.742,1.7388,1.743,1.7507,1.7512,1.742,1.7419,1.7419,0,1.7502,1.751,1.7528,1.7527,1.7512,1.7521,1.7516,1.7507,1.7509,1.7508,1.7508,1.7509,1.7508,1.7509,1.7489,1.7471,1.7507,1.7478,1.7498,1.7498,1.7505,1.7504,1.7581,1.7511,1.7511,1.7511,1.751,0,1.7563,1.7582,1.7554,1.7565,1.7584,1.7561,1.758,1.7572,1.7564,1.7572,1.7546,1.7554,1.7528,1.7533,1.7518,1.7532,1.7533,1.7525,1.752,1.7525,1.7526,1.7524,1.7519,1.7512,1.7512,1.7512,1.7511,0,1.7631,1.7613,1.763,1.7615,1.7611,1.7626,1.7612,1.7621,1.7608,1.7618,1.7619,1.7599,1.7603,1.7584,1.7585,1.7574,1.7595,1.7587,1.7597,1.7593,1.7614,1.7611,1.7689,1.7697,1.7625,1.7626,1.7626,0,1.767,1.7683,1.7668,1.7672,1.7667,1.7673,1.7674,1.7651,1.7653,1.7645,1.7655,1.7657,1.7656,1.7664,1.7649,1.7649,1.7638,1.7665,1.7638,1.7642,1.7635,1.7633,1.7633,1.767,1.7671,1.7672,1.7673,0,1.7739,1.7729,1.7732,1.7731,1.7733,1.7731,1.7727,1.7731,1.7707,1.771,1.7714,1.7714,1.7714,1.7715,1.7712,1.7705,1.7684,1.7682,1.7686,1.769,1.7695,1.7689,1.761,1.7679,1.7679,1.7678,1.7678,1.7678,1.7791,1.7801,1.7791,1.7794,1.7789,1.7786,1.7793,1.7781,1.7783,1.7781,1.7768,1.7773,1.7764,1.7758,1.7753,1.7756,1.7743,1.775,1.7751,1.7752,1.7754,1.7697,1.7756,1.7755,1.7755,1.7755,1.7755,0,1.7857,1.7849,1.7852,1.7847,1.7849,1.7831,1.7825,1.7828,1.7833,1.7826,1.7827,1.7829,1.783,1.7815,1.7814,1.7819,1.7809,1.7819,1.7817,1.7815,1.7768,1.7763,1.7827,1.7827,1.7827,1.7827,1.7827,1.7827,1.7891,1.7905,1.7894,1.7904,1.7896,1.7901,1.7899,1.7896,1.789,1.7894,1.7895,1.7885,1.7875,1.7872,1.7871,1.7867,1.7866,1.7879,1.7871,1.7826,1.7819,1.7812,1.7807,1.788,1.788,1.7918,1.7918,1.7918]},{"header":{"parameterUnit":"m.s-1","parameterCategory":1,"la1":30.2991,"la2":30.254,"lo1":-89.0895,"lo2":-89.0444,"dy":0.0017,"dx":0.0017,"nx":28,"ny":28,"refTime":"2025-09-16T09:00:00:Z","depth":0,"parameterNumber":3,"parameterNumberName":"V-component_of_WINDS"},"data":[0,0,0,0,0,0,0,0,0,0,0,0,0,0,0,0,0,0,0,0,0,0,0,0,0,0,0,0,0,0,0,0,0,0,0,0,0,0,0,0,0,0,0,0,0,0,0,0,0,0,0,0,0,0,0,0,0,0,2.419,2.419,0,2.4207,2.4207,2.4208,2.4166,2.4164,2.4163,2.4162,2.4179,2.4181,2.4182,0,0,0,0,0,0,0,0,0,0,0,0,0,2.4118,2.412,2.419,2.419,2.419,2.4207,2.4207,2.4208,2.4166,2.4164,2.4163,2.4161,2.4178,2.418,2.4182,0,0,0,0,0,0,0,0,0,0,0,0,0,2.4144,2.412,2.419,2.4172,2.417,2.4207,2.4207,2.4208,2.4166,2.4164,2.4162,2.416,2.4178,2.418,2.4183,2.4238,0,0,2.4191,2.4192,0,0,0,0,0,0,0,0,2.4142,2.4146,2.4174,2.4173,2.4171,2.4182,2.4188,2.4218,2.4167,2.4168,2.4162,2.4159,2.4182,2.4184,2.4191,2.4239,2.424,2.4191,2.4192,2.4193,2.4194,0,0,0,0,0,0,0,2.4141,2.4145,2.4197,2.4174,2.4173,2.4162,2.4163,2.4194,2.4186,2.4167,2.4164,2.4167,2.4181,2.4189,2.4191,2.424,2.4191,2.4193,2.4195,2.4196,2.433,2.4332,0,0,0,0,0,0,2.4141,2.4144,2.4196,2.4197,2.4152,2.4164,2.4166,2.4181,2.4185,2.4184,2.4169,2.4165,2.4186,2.4189,2.4192,2.4254,2.4193,2.4196,2.4197,2.4328,2.4331,2.4333,0,0,0,0,0,0,2.414,2.4146,2.4195,2.417,2.4175,2.4168,2.4185,2.4182,2.4191,2.4186,2.4184,2.4179,2.4184,2.4188,2.4226,2.4255,2.4197,2.4199,2.4326,2.4329,2.4332,2.4382,0,0,0,0,0,0,2.4138,2.4146,2.4168,2.4171,2.4177,2.4231,2.4186,2.4184,2.4195,2.419,2.4195,2.4194,2.4183,2.4223,2.4229,2.4257,2.4201,2.4323,2.4327,2.4331,2.4377,2.4386,2.4394,0,0,0,0,0,2.4136,2.4182,2.4169,2.4176,2.4204,2.4232,2.4236,2.4222,2.4198,2.4219,2.4215,2.4194,2.4251,2.4227,2.4233,2.4263,2.4321,2.4326,2.4331,2.4374,2.4384,2.4393,0,0,0,0,0,0,2.4184,2.4182,2.4168,2.4217,2.4225,2.4225,2.4252,2.4234,2.4249,2.4244,2.4226,2.4228,2.4268,2.427,2.4243,2.4315,2.4282,2.4288,2.4312,2.4322,2.433,2.4328,2.4203,0,0,0,0,0,2.42,2.4223,2.4221,2.4264,2.4269,2.426,2.4271,2.426,2.4267,2.4271,2.427,2.4278,2.4297,2.431,2.4328,2.4378,2.4377,2.4401,2.4409,2.4416,2.4421,2.4444,2.4454,2.4348,2.4348,2.4348,0,0,2.4234,2.4236,2.4252,2.4274,2.4279,2.4302,2.4263,2.429,2.4307,2.4275,2.4309,2.431,2.4317,2.436,2.4379,2.4362,2.445,2.4422,2.4427,2.4428,2.445,2.446,2.4469,2.4351,2.4351,2.435,0,0,2.4307,2.4312,2.4347,2.4352,2.4359,2.4352,2.4361,2.4363,2.4361,2.4396,2.4372,2.4391,2.4426,2.443,2.4438,2.451,2.449,2.4516,2.4557,2.458,2.4589,2.4596,2.4619,2.4628,2.4521,2.4522,2.4522,0,2.4348,2.4383,2.4367,2.4395,2.4404,2.4375,2.4409,2.4415,2.4428,2.4434,2.4416,2.4456,2.4459,2.4501,2.4519,2.4527,2.4534,2.4515,2.4589,2.4596,2.4602,2.4624,2.4633,2.4524,2.4524,2.4524,2.4524,0,2.4431,2.4456,2.4483,2.4494,2.4507,2.4538,2.4526,2.454,2.4527,2.4521,2.4555,2.4558,2.4574,2.4584,2.4572,2.4624,2.4613,2.4592,2.4558,2.4616,2.4635,2.4644,2.4529,2.4528,2.4527,2.4526,0,0,2.4536,2.4537,2.4547,2.455,2.4555,2.4573,2.4602,2.4617,2.4628,2.4638,2.466,2.4688,2.4668,2.4676,2.4664,2.4685,2.4738,2.466,2.466,2.4673,2.4792,2.4806,2.4816,2.4725,2.4726,2.4728,2.479,0,2.4606,2.4655,2.464,2.4689,2.4709,2.4681,2.4705,2.471,2.4706,2.4722,2.4716,2.4736,2.4709,2.4713,2.4732,2.4727,2.4761,2.4723,2.4743,2.4744,2.474,2.4827,2.4842,2.4901,2.4798,2.4799,2.48,0,2.4695,2.4705,2.4756,2.4754,2.4762,2.4784,2.4795,2.4812,2.4816,2.4811,2.4818,2.4802,2.4828,2.4795,2.4829,2.4804,2.4811,2.481,2.4812,2.4812,2.4775,2.4827,2.492,2.4928,2.4813,2.4812,2.4811,0,2.4762,2.479,2.4823,2.4827,2.4826,2.4842,2.4843,2.4845,2.4854,2.4863,2.4869,2.4882,2.4889,2.4898,2.4885,2.4862,2.4921,2.4887,2.4915,2.4916,2.4928,2.4927,2.5021,2.4936,2.4936,2.4936,2.4936,0,2.4841,2.4872,2.4852,2.4872,2.4906,2.4888,2.4921,2.4918,2.492,2.4938,2.4915,2.4932,2.4914,2.493,2.4919,2.4948,2.4952,2.4947,2.4944,2.4948,2.4948,2.4951,2.4946,2.4938,2.4938,2.4938,2.4937,0,2.4922,2.491,2.4943,2.4939,2.4939,2.4963,2.4959,2.4977,2.497,2.4993,2.4997,2.4986,2.5002,2.499,2.5007,2.4999,2.5036,2.5028,2.5035,2.5032,2.506,2.5056,2.5158,2.5169,2.5079,2.508,2.5081,0,2.4972,2.4994,2.4992,2.5002,2.5003,2.502,2.5028,2.5012,2.5021,2.5026,2.5042,2.5056,2.5067,2.5094,2.5087,2.5099,2.5089,2.5124,2.5091,2.5094,2.5087,2.5085,2.5085,2.513,2.5131,2.5132,2.5133,0,2.506,2.5053,2.5066,2.5076,2.5086,2.5093,2.5099,2.5108,2.5091,2.5102,2.5118,2.5126,2.5142,2.5155,2.5164,2.5164,2.5145,2.5143,2.515,2.5154,2.5155,2.5152,2.505,2.5141,2.514,2.514,2.5139,2.5139,2.5125,2.5143,2.5143,2.5157,2.5159,2.5164,2.5179,2.5173,2.5186,2.5197,2.5186,2.5205,2.5205,2.5215,2.5217,2.5231,2.5216,2.5227,2.5229,2.5231,2.5234,2.5155,2.5233,2.5232,2.5232,2.5232,2.5232,0,2.521,2.5208,2.5222,2.5229,2.524,2.522,2.5225,2.5235,2.5251,2.5253,2.5263,2.528,2.5292,2.5286,2.5296,2.5308,2.5299,2.5311,2.5309,2.5309,2.5248,2.5239,2.5318,2.5318,2.5318,2.5318,2.5318,2.5318,2.5256,2.5283,2.5276,2.5303,2.5301,2.5318,2.5322,2.5326,2.5327,2.5346,2.5356,2.5351,2.5349,2.5359,2.5369,2.5366,2.537,2.5385,2.5379,2.5322,2.5313,2.5305,2.5297,2.5386,2.5387,2.5439,2.5439,2.544]}]]